ARTEMIS

Last updated on Nov. 24, 2017, 12:18 a.m. UTC

1 26863U 01029A   17327.71993767  .00000079  00000-0  00000+0 0  9991
2 26863  12.8696  31.4100 0006800 124.5137 230.7111  0.99288277 61032
UTC
Height (km)
Latitude
Longitude
Inclination
Orbital Period
UTC large
Height (km)
Speed (km/s)
/
Latitude / Longitude
Inclination (degrees)
Orbital Period (minutes)
Azimuth
Elevation
Range (km)
Doppler Factor
iOS Compass Heading
iOS Angle

Next 30 passes for location: Hong Kong

Rise time Rise Azimuth (degrees) Set time Set Azimuth (degrees) Duration Max altitude (degrees)

No matching passes for this satellites